Terminal Aerodrome Forecast
Issued by NWS Honolulu, HI

Home | Current Version | Previous Version | Text Only | Print | Product List | Glossary On
Versions: 1 2 3 4 5 6 7 8 9 10 11 12 13 14 15 16 17 18 19 20 21 22 23 24 25 26 27 28 29 30 31 32 33 34 35 36 37 38 39 40 41 42 43 44
000
FTPA31 PHFO 290300 AAA
TAFHNL
TAF AMD
PHNL 290305Z 2903/3006 07010G16KT P6SM FEW030 SCT050
     FM290400 04007KT P6SM FEW030 SCT050
     FM291000 35003KT P6SM FEW050
     FM292000 07010G16KT P6SM FEW030 SCT050=

USA.gov is the U.S. government's official web portal to all federal, state and local government web resources and services.